Location: McLaughlin
(0.0000°N, 0.0000°E)
Time: 10:05:39
(UTC+00:00)

XW-2B - Visible Passes

Search period start: 22 August 2019 00:00
Search period end: 01 September 2019 00:00
Orbit: 509 x 527 km, 97.5° (Epoch: 21 August)

Date Brightness Start Highest point End Pass type
(mag) Time Alt. Az. Time Alt. Az. Time Alt. Az.
24 Aug ? 05:35:43 10° NNE 05:39:32 84° E 05:43:21 10° S visible
25 Aug ? 05:21:54 10° NNE 05:25:34 47° ESE 05:29:16 10° S visible
26 Aug ? 05:08:18 10° NE 05:11:36 28° E 05:14:55 10° SSE visible
26 Aug ? 18:38:01 10° WSW 18:38:29 10° WSW 18:38:56 10° W visible
27 Aug ? 04:55:05 10° ENE 04:57:39 17° ESE 05:00:13 10° SE visible
28 Aug ? 04:42:58 10° E 04:43:42 10° ESE 04:44:26 10° ESE visible
31 Aug ? 05:31:51 10° NNE 05:35:38 72° ESE 05:39:25 10° S visible
